カタログに戻る

STARLINK-32394

運用中通信VLEO
NORAD 61853·PAYLOAD·🇺🇸 United States

打ち上げ Nov 7, 2024 から Cape Canaveral Space Force Station

Loading…

次のパス (今後24時間)

TLE

最新Source: CelesTrak SupGP

元期: Sep 14, 2026, 21:25 UTC

1 61853C 24202J   26257.89284722  .00030099  00000+0  10903-2 0  2579
2 61853  42.9990 249.1956 0001387 265.4874 214.5191 15.27559794    17

AllMySatでSTARLINK-32394をリアルタイム追跡

Download on the App Store